sat.trackr.live / text

‹ back to catalog

STARLINK-35571

NORAD 66089 · 2025-236D

PAYLOAD ACTIVE UNKNOWN

§ Identity

Operator
Country
US
Launch date
2025-10-19
Launch site
AFWTR
Launch vehicle
Mass (kg)
RCS (m²)

Purposes: comms

External: N2YO · Heavens-Above · Gunter

§ Orbital elements

Epoch: 2026-09-20T07:33:23.173056Z

Period
93.85 min
Inclination
53.1586°
Eccentricity
0.0001322
Mean motion
15.34403750 rev/d
Perigee alt
461.8 km
Apogee alt
463.6 km
Semi-major
6,840.8 km
B*
3.2718e-4
RAAN
278.3675°
Arg perigee
89.7203°
Mean anomaly
270.3952°
Rev number
5,276

§ Raw data

STARLINK-355711 66089U 25236D   26263.31485154  .00010695  00000+0  32718-3 0  99912 66089  53.1586 278.3675 0001322  89.7203 270.3952 15.34403750 52764

JSON: /api/v1/satellites/66089 · /tle

For live sub-satellite position, see the globe view (requires WebGL).

§ Visibility from observer

Set your observer location to see the next 7 days of passes ≥ 10°. The values pass through the URL so the page stays shareable.

No JS? Fill the form by hand. The geolocation button needs JavaScript.